Huntsville, AL

12:33 PM CDT on August 20, 2017 (GMT -0500)
Huntsville International

Weather History for KHSV - March, 2014

Change the Weather History Date:

Monday, March 24, 2014

  Actual Average Record
Temperature  
Mean Temperature 45 °F 56 °F  
Max Temperature 58 °F 67 °F 90 °F (1929)
Min Temperature 32 °F 44 °F 24 °F (1968)
Degree Days  
Heating Degree Days 20 10  
Month to date heating degree days 366 306  
Since 1 July heating degree days 3201 2758  
Cooling Degree Days 0 1  
Month to date cooling degree days 0 2  
Year to date cooling degree days 1 3  
Moisture  
Dew Point 23 °F    
Average Humidity 47    
Maximum Humidity 72    
Minimum Humidity 21    
Precipitation  
Precipitation 0.00 in 0.17 in 2.18 in (1936)
Month to date precipitation 2.25 4.01  
Year to date precipitation 12.12 13.74  
Snow  
Snow 0.00 in - - ()
Month to date snowfall T  
Since 1 July snowfall 5.2  
Snow Depth 0.00 in    
Sea Level Pressure  
Sea Level Pressure 30.15 in    
Wind  
Wind Speed 7 mph (NNE)    
Max Wind Speed 13 mph    
Max Gust Speed 18 mph    
Visibility 10 miles    
Events      
T = Trace of Precipitation, MM = Missing Value Source: NWS Daily Summary

Daily Weather History Graph

Daily Weather History Graph

Search for Another Location

Airport or City:

Trip Planner

Search our weather history database for the weather conditions in past years. The results will help you decide how hot, cold, wet, or windy it might be!

Date:

Astronomy

Mar. 24, 2014 Rise Set
Actual Time 6:45 AM CDT 7:01 PM CDT
Civil Twilight 6:20 AM CDT 7:27 PM CDT
Nautical Twilight 5:50 AM CDT 7:56 PM CDT
Astronomical Twilight 5:20 AM CDT 8:26 PM CDT
Moon 2:01 AM CDT (3/24) 12:40 PM CDT (3/24)
Length of Visible Light 13h 07m
Length of Day
12h 16m
Last Quarter, 43% of the Moon is Illuminated
Mar 24
Last Quarter
Mar 30
New
Apr 7
First Quarter
Apr 15
Full
Apr 22
Last Quarter

Hourly Weather History & Observations

Time (CDT) Temp. Windchill Dew Point Humidity Pressure Visibility Wind Dir Wind Speed Gust Speed Precip Events Conditions
12:53 AM 39.9 °F 33.4 °F 26.1 °F 58% 30.25 in 10.0 mi NNE 10.4 mph - N/A   Clear
1:53 AM 37.9 °F 32.1 °F 25.0 °F 60% 30.25 in 10.0 mi NNE 8.1 mph - N/A   Clear
2:53 AM 36.0 °F 29.0 °F 25.0 °F 64% 30.23 in 10.0 mi NNE 9.2 mph - N/A   Clear
3:53 AM 35.1 °F 27.9 °F 25.0 °F 67% 30.22 in 10.0 mi NNE 9.2 mph - N/A   Clear
4:53 AM 34.0 °F 26.6 °F 24.1 °F 67% 30.23 in 10.0 mi NNE 9.2 mph - N/A   Clear
5:53 AM 32.0 °F 25.6 °F 24.1 °F 73% 30.24 in 10.0 mi NNE 6.9 mph - N/A   Clear
6:53 AM 32.0 °F 24.2 °F 21.9 °F 66% 30.25 in 10.0 mi NNE 9.2 mph - N/A   Partly Cloudy
7:53 AM 36.0 °F 31.1 °F 24.1 °F 62% 30.26 in 10.0 mi NNE 5.8 mph - N/A   Partly Cloudy
8:53 AM 39.9 °F 37.8 °F 24.1 °F 53% 30.26 in 10.0 mi Variable 3.5 mph - N/A   Partly Cloudy
9:53 AM 43.0 °F 41.3 °F 24.1 °F 47% 30.26 in 10.0 mi Variable 3.5 mph - N/A   Partly Cloudy
10:53 AM 46.9 °F - 25.0 °F 42% 30.25 in 10.0 mi Variable 4.6 mph - N/A   Scattered Clouds
11:53 AM 51.1 °F - 23.0 °F 33% 30.22 in 10.0 mi Variable 4.6 mph - N/A   Scattered Clouds
12:53 PM 53.1 °F - 23.0 °F 31% 30.18 in 10.0 mi Variable 5.8 mph - N/A   Scattered Clouds
1:53 PM 55.0 °F - 21.0 °F 27% 30.14 in 10.0 mi Calm Calm - N/A   Scattered Clouds
2:53 PM 55.9 °F - 19.9 °F 25% 30.10 in 10.0 mi SE 8.1 mph - N/A   Scattered Clouds
3:53 PM 57.0 °F - 18.0 °F 22% 30.05 in 10.0 mi North 4.6 mph - N/A   Mostly Cloudy
4:53 PM 57.0 °F - 19.9 °F 24% 30.03 in 10.0 mi NNE 4.6 mph - N/A   Mostly Cloudy
5:53 PM 55.9 °F - 19.9 °F 25% 30.02 in 10.0 mi North 8.1 mph - N/A   Mostly Cloudy
6:53 PM 52.0 °F - 24.1 °F 34% 30.02 in 10.0 mi North 5.8 mph - N/A   Mostly Cloudy
7:53 PM 50.0 °F - 25.0 °F 38% 30.02 in 10.0 mi North 4.6 mph - N/A   Mostly Cloudy
8:53 PM 50.0 °F - 26.1 °F 39% 30.03 in 10.0 mi North 6.9 mph - N/A   Mostly Cloudy
9:53 PM 50.0 °F - 23.0 °F 35% 30.04 in 10.0 mi North 6.9 mph - N/A   Overcast
10:53 PM 48.0 °F - 24.1 °F 39% 30.04 in 10.0 mi North 10.4 mph - N/A   Overcast
11:53 PM 48.0 °F - 21.0 °F 34% 30.03 in 10.0 mi NNE 10.4 mph - N/A   Overcast